Pellston, MI

8:39 PM EDT on October 17, 2017 (GMT -0400)
Pellston Regional Airport Of Emmet County

Weather History for KPLN - October, 2011

Change the Weather History Date:

Thursday, October 6, 2011

  Actual Average Record
Temperature  
Mean Temperature 56 °F -  
Max Temperature 77 °F 57 °F 80 °F (1970)
Min Temperature 37 °F 37 °F 18 °F (1964)
Degree Days  
Heating Degree Days 9    
Growing Degree Days 6 (Base 50)    
Moisture  
Dew Point 48 °F    
Average Humidity 83    
Maximum Humidity 100    
Minimum Humidity 40    
Precipitation  
Precipitation 0.00 in - - ()
Sea Level Pressure  
Sea Level Pressure 30.29 in    
Wind  
Wind Speed 2 mph (ESE)    
Max Wind Speed 7 mph    
Max Gust Speed -    
Visibility 7 miles    
Events      
Averages and records for this station are not official NWS values.
T = Trace of Precipitation, MM = Missing Value Source: NWS Daily Summary

Daily Weather History Graph

Daily Weather History Graph

Search for Another Location

Airport or City:

Trip Planner

Search our weather history database for the weather conditions in past years. The results will help you decide how hot, cold, wet, or windy it might be!

Date:

Astronomy

Oct. 06, 2011 Rise Set
Actual Time 7:43 AM EDT 7:10 PM EDT
Civil Twilight 7:13 AM EDT 7:40 PM EDT
Nautical Twilight 6:39 AM EDT 8:14 PM EDT
Astronomical Twilight 6:04 AM EDT 8:48 PM EDT
Moon 4:36 PM EDT (10/6) 2:16 AM EDT (10/6)
Length of Visible Light 12h 26m
Length of Day
11h 27m
Waxing Gibbous, 75% of the Moon is Illuminated
Oct 6
Waxing Gibbous
Oct 11
Full
Oct 19
Last Quarter
Oct 26
New
Nov 2
First Quarter

Hourly Weather History & Observations

Time (EDT) Temp. Dew Point Humidity Pressure Visibility Wind Dir Wind Speed Gust Speed Precip Events Conditions
12:54 AM 50.0 °F 45.0 °F 83% 30.31 in 10.0 mi SE 5.8 mph - N/A   Clear
1:54 AM 50.0 °F 45.0 °F 83% 30.31 in 10.0 mi SE 5.8 mph - N/A   Clear
2:54 AM 50.0 °F 45.0 °F 83% 30.32 in 10.0 mi SE 3.5 mph - N/A   Clear
3:54 AM 46.9 °F 44.1 °F 90% 30.32 in 10.0 mi Calm Calm - N/A   Clear
4:54 AM 42.1 °F 41.0 °F 96% 30.32 in 10.0 mi Calm Calm - N/A   Clear
5:54 AM 41.0 °F 39.9 °F 96% 30.32 in 10.0 mi Calm Calm - N/A   Clear
6:54 AM 39.9 °F 39.0 °F 97% 30.32 in 3.0 mi Calm Calm - N/A   Clear
7:54 AM 37.9 °F 37.9 °F 100% 30.32 in 10.0 mi Calm Calm - N/A   Clear
8:54 AM 45.0 °F 43.0 °F 93% 30.33 in 10.0 mi Calm Calm - N/A   Clear
9:54 AM 52.0 °F 46.9 °F 83% 30.33 in 10.0 mi Calm Calm - N/A   Clear
10:54 AM 60.1 °F 48.9 °F 67% 30.33 in 10.0 mi Calm Calm - N/A   Clear
11:54 AM 64.9 °F 51.1 °F 61% 30.32 in 10.0 mi Calm Calm - N/A   Clear
12:54 PM 71.1 °F 52.0 °F 51% 30.30 in 10.0 mi Variable 3.5 mph - N/A   Clear
1:54 PM 72.0 °F 51.1 °F 48% 30.29 in 10.0 mi Calm Calm - N/A   Clear
2:54 PM 73.9 °F 53.1 °F 48% 30.27 in 10.0 mi Variable 4.6 mph - N/A   Clear
3:54 PM 75.2 °F 51.8 °F 44% 30.26 in 10.0 mi Calm Calm - N/A   Clear
4:54 PM 75.9 °F 50.0 °F 40% 30.26 in 10.0 mi West 5.8 mph - N/A   Clear
5:54 PM 73.0 °F 55.0 °F 53% 30.26 in 10.0 mi North 6.9 mph - N/A   Clear
6:54 PM 66.9 °F 54.0 °F 63% 30.27 in 10.0 mi ENE 3.5 mph - N/A   Clear
7:54 PM 57.9 °F 53.1 °F 84% 30.28 in 10.0 mi Calm Calm - N/A   Clear
8:54 PM 53.1 °F 52.0 °F 96% 30.29 in 10.0 mi Calm Calm - N/A   Clear
9:54 PM 51.1 °F 50.0 °F 96% 30.29 in 9.0 mi Calm Calm - N/A   Clear
10:21 PM 50.0 °F 48.2 °F 94% 30.27 in 1.5 mi Calm Calm - N/A   Clear
10:34 PM 48.2 °F 48.2 °F 100% 30.27 in 3.0 mi Calm Calm - N/A   Clear
10:45 PM 48.2 °F 48.2 °F 100% 30.27 in 1.5 mi Calm Calm - N/A   Clear
10:54 PM 48.0 °F 48.0 °F 100% 30.28 in 0.8 mi Calm Calm - N/A   Clear
11:00 PM 48.2 °F 48.2 °F 100% 30.27 in 2.0 mi Calm Calm - N/A   Clear
11:08 PM 48.2 °F 48.2 °F 100% 30.27 in 4.0 mi Calm Calm - N/A   Clear
11:15 PM 48.2 °F 48.2 °F 100% 30.27 in 1.8 mi Calm Calm - N/A   Clear
11:30 PM 46.4 °F 46.4 °F 100% 30.27 in 0.8 mi Calm Calm - N/A   Clear
11:42 PM 46.4 °F 46.4 °F 100% 30.27 in 1.5 mi Calm Calm - N/A   Clear
11:46 PM 46.4 °F 46.4 °F 100% 30.27 in 3.0 mi Calm Calm - N/A   Clear
11:54 PM 46.0 °F 46.0 °F 100% 30.28 in 6.0 mi Calm Calm - N/A   Clear